Location: Winnipeg
(49.8830°N, 97.1670°W)
Time: 02:46:21
(UTC-06:00)

ISS - Pass Details

Date: 01 February 2021
Orbit: 417 x 422 km, 51.6° (Epoch: 07 March)

Event Time Altitude Azimuth Distance (km) Brightness Sun altitude
Rises 19:38:21 0° 287° (WNW) 2,377 1.4 -21.7°
Reaches altitude 10° 19:40:33 10° 279° (W) 1,510 0.2 -22.1°
Maximum altitude 19:43:40 35° 212° (SSW) 709 -2.4 -22.6°
Enters shadow 19:43:44 34° 209° (SSW) 709 -2.4 -22.6°
